Home > Weather > Newport News > Past weeks

Flag for USA Past Weather in Newport News, Virginia, USA — Yesterday and Last 2 Weeks

Now
63 °F

Passing clouds.


Feels Like: 63 °F
Forecast: 67 / 82 °F
Wind: No wind

Location: Newport News / Williamsburg International Airport

Current Time: Aug 24, 2016 at 2:38:38 AM

Latest Report: Aug 24, 2016 at 1:54 AM


Visibility: 10 mi

Pressure: 30.28 "Hg

Humidity: 90%

Dew Point: 60 °F

Location of Newport NewsLocation

Past Weather in Newport News — Graph

°F

Newport News Temperature Yesterday

Maximum temperature yesterday: 84 °F (at 2:54 PM)
Minimum temperature yesterday: 63 °F (at 11:54 PM)
Average temperature yesterday: 73 °F

High & Low Weather Summary for the Past Weeks

 TemperatureHumidityPressure
High94 °F (Aug 13, 2:54 PM)100% (Aug 19, 5:54 AM)30.33 "Hg (Aug 19, 5:54 AM)
Low63 °F (Aug 23, 11:54 PM)40% (Aug 22, 2:54 PM)29.75 "Hg (Aug 21, 6:54 PM)
Average82 °F76%30.06 "Hg
* Reported Aug 9 12:54 AM — Aug 24 12:54 AM, Newport News, Weather by CustomWeather, © 2016

Note: Actual official high and low records may vary slightly from our data, if they occured in-between our weather recording intervals... More about our weather records

Advertising

Newport News Weather History for the Previous 24 Hours

Scroll right to see more
 ConditionsComfort  
Time TempWeatherWind HumidityBarometerVisibility
12:54 AM
Wed, Aug 24
63 °FClear.No wind90%30.29 "Hg10 mi
11:54 PM
Tue, Aug 23
63 °FClear.No wind93%30.29 "Hg10 mi
10:54 PM65 °FClear.No wind87%30.30 "Hg10 mi
9:54 PM65 °FClear.No wind87%30.30 "Hg10 mi
8:54 PM73 °FClear.5 mph66%30.29 "Hg10 mi
7:54 PM73 °FSunny.6 mph64%30.27 "Hg10 mi
6:54 PM78 °FSunny.5 mph52%30.26 "Hg10 mi
5:54 PM80 °FSunny.8 mph45%30.26 "Hg10 mi
4:54 PM82 °FSunny.12 mph43%30.27 "Hg10 mi
3:54 PM82 °FSunny.No wind44%30.28 "Hg10 mi
2:54 PM84 °FSunny.5 mph43%30.30 "Hg10 mi
1:54 PM81 °FSunny.6 mph44%30.32 "Hg9 mi
12:54 PM82 °FSunny.12 mph46%30.33 "Hg10 mi
11:54 AM81 °FSunny.10 mph45%30.32 "Hg10 mi
10:54 AM80 °FSunny.13 mph54%30.33 "Hg10 mi
9:54 AM80 °FScattered clouds.13 mph58%30.32 "Hg10 mi
8:54 AM76 °FPartly sunny.12 mph72%30.31 "Hg10 mi
7:54 AM71 °FSunny.3 mph87%30.29 "Hg10 mi
6:54 AM65 °FClear.No wind94%30.28 "Hg10 mi
5:54 AM66 °FPassing clouds.3 mph93%30.25 "Hg10 mi
4:54 AM65 °FClear.No wind94%30.23 "Hg10 mi
3:54 AM66 °FClear.No wind93%30.22 "Hg10 mi
2:54 AM65 °FClear.3 mph91%30.21 "Hg10 mi
Weather by CustomWeather, © 2016

See weather overviewHow to use our weather pages